Home   Weather   Knarvik   Past weeks

Flag for Norway Past Weather in Knarvik, Norway — Yesterday and Last 2 Weeks

Now
49 °F

Overcast.


Feels Like: 46 °F
Forecast: 46 / 48 °F
Wind: 6 mph from West

Location: Bergen / Flesland

Current Time: Dec 8, 2016 at 5:13:59 pm

Latest Report: Dec 8, 2016 at 4:00 pm


Visibility: 4 mi

Pressure: 29.92 "Hg

Humidity: 94%

Dew Point: 47 °F

Location of KnarvikLocation

Past Weather in Knarvik — Graph

°F

Knarvik Temperature Yesterday

Maximum temperature yesterday: 49 °F (at 11:00 pm)
Minimum temperature yesterday: 39 °F (at 5:00 am)
Average temperature yesterday: 45 °F

High & Low Weather Summary for the Past Weeks

 TemperatureHumidityPressure
High51 °F (Dec 8, 5:00 am)99% (Nov 25, 6:00 pm)30.53 "Hg (Nov 25, 6:00 pm)
Low28 °F (Nov 28, 9:00 am)64% (Nov 27, 3:00 pm)29.62 "Hg (Dec 8, 1:00 am)
Average41 °F88%30.13 "Hg
* Reported Nov 23 4:00 pm — Dec 8 4:00 pm, Knarvik, Weather by CustomWeather, © 2016

Note: Actual official high and low records may vary slightly from our data, if they occured in-between our weather recording intervals... More about our weather records

Advertising

Knarvik Weather History for the Previous 24 Hours

Scroll right to see more
 ConditionsComfort  
Time TempWeatherWind HumidityBarometerVisibility
4:00 pm
Thu, Dec 8
49 °FOvercast.6 mph94%29.92 "Hg4 mi
3:00 pm49 °FLow clouds.8 mph94%29.90 "Hg3 mi
2:00 pm49 °FRain showers. Low clouds.8 mph94%29.89 "Hg3 mi
1:00 pm50 °FRain showers. Low clouds.7 mph93%29.88 "Hg3 mi
12:00 pm49 °FLow clouds.6 mph92%29.87 "Hg3 mi
11:00 am50 °FLow clouds.6 mph93%29.83 "Hg4 mi
10:00 am50 °FLow clouds.7 mph95%29.82 "Hg3 mi
9:00 amN/ALow clouds.N/AN/AN/A2 mi
8:00 amN/ALow clouds.N/AN/AN/A6 mi
7:00 am51 °FLow clouds.9 mph91%29.72 "Hg6 mi
6:00 am50 °FLow clouds.10 mph92%29.69 "Hg6 mi
5:00 am51 °FLow clouds.10 mph90%29.67 "Hg4 mi
4:00 am51 °FOvercast.10 mph91%29.66 "Hg3 mi
1:00 am51 °FLow clouds.12 mph94%29.62 "Hg6 mi
12:00 am49 °FRain showers. Low clouds.9 mph97%29.63 "Hg3 mi
11:00 pm
Wed, Dec 7
49 °FLow clouds.8 mph98%29.65 "Hg5 mi
10:00 pm49 °FRain showers. Low clouds.8 mph97%29.67 "Hg3 mi
9:00 pm49 °FRain. Low clouds.9 mph98%29.69 "Hg4 mi
8:00 pm48 °FRain. Low clouds.8 mph98%29.70 "Hg4 mi
7:00 pmN/ALow clouds.N/AN/AN/A3 mi
6:00 pm48 °FDrizzle. Low clouds.7 mph97%29.71 "Hg2 mi
5:00 pm47 °FRain. Low clouds.8 mph96%29.73 "Hg2 mi
Weather by CustomWeather, © 2016

See weather overviewHow to use our weather pages